Weather History for KRDD - April, 2013

Change the Weather History Date:

Thursday, April 4, 2013

  Actual Average Record
Temperature  
Mean Temperature 58 °F -  
Max Temperature 61 °F 67 °F 84 °F (1990)
Min Temperature 54 °F 44 °F 35 °F (2001)
Degree Days  
Heating Degree Days 7    
Cooling Degree Days 0    
Growing Degree Days 8 (Base 50)    
Moisture  
Dew Point 52 °F    
Average Humidity 83    
Maximum Humidity 93    
Minimum Humidity 72    
Precipitation  
Precipitation 0.18 in 0.09 in 1.23 in (2013)
Month to date precipitation 0.18 0.37  
Year to date precipitation 5.14 16.21  
Since 1 July precipitation 24.30  
Sea Level Pressure  
Sea Level Pressure 29.97 in    
Wind  
Wind Speed 9 mph (SSW)    
Max Wind Speed 29 mph    
Max Gust Speed 43 mph    
Visibility 10 miles    
Events Rain , Thunderstorm    
T = Trace of Precipitation, MM = Missing Value Source: NWS Daily Summary

Daily Weather History Graph

Daily Weather History Graph

Search for Another Location

Airport or City:

Trip Planner

Search our weather history database for the weather conditions in past years. The results will help you decide how hot, cold, wet, or windy it might be!

Date:

Astronomy

Apr. 04, 2013 Rise Set
Actual Time 6:47 AM PDT 7:37 PM PDT
Civil Twilight 6:19 AM PDT 8:05 PM PDT
Nautical Twilight 5:46 AM PDT 8:37 PM PDT
Astronomical Twilight 5:13 AM PDT 9:12 PM PDT
Moon 3:19 AM PDT (4/4) 2:00 PM PDT (4/4)
Length of Visible Light 13h 45m
Length of Day
12h 49m
Waning Crescent, 32% of the Moon is Illuminated
Apr 4
Waning Crescent
Apr 10
New
Apr 18
First Quarter
Apr 25
Full
May 2
Last Quarter

Hourly Weather History & Observations

Time (PDT) Temp. Dew Point Humidity Pressure Visibility Wind Dir Wind Speed Gust Speed Precip Events Conditions
12:53 AM 57.9 °F 53.1 °F 84% 29.94 in 10.0 mi Calm Calm - N/A   Mostly Cloudy
1:53 AM 57.9 °F 54.0 °F 87% 29.92 in 10.0 mi NNE 4.6 mph - N/A   Overcast
2:53 AM 57.9 °F 53.1 °F 84% 29.91 in 10.0 mi Calm Calm - N/A   Mostly Cloudy
3:53 AM 57.9 °F 53.1 °F 84% 29.87 in 10.0 mi North 6.9 mph - N/A   Overcast
4:53 AM 57.9 °F 53.1 °F 84% 29.88 in 10.0 mi West 3.5 mph - N/A   Mostly Cloudy
5:53 AM 60.1 °F 52.0 °F 75% 29.89 in 10.0 mi SSW 9.2 mph - N/A   Overcast
6:53 AM 59.0 °F 51.1 °F 75% 29.93 in 10.0 mi SSW 9.2 mph 19.6 mph 0.00 in Rain Light Rain
7:53 AM 55.9 °F 53.1 °F 90% 29.98 in 9.0 mi South 3.5 mph - 0.05 in Rain Rain
8:53 AM 54.0 °F 50.0 °F 86% 29.98 in 10.0 mi South 5.8 mph - 0.12 in Rain Light Rain
9:22 AM 53.6 °F 50.0 °F 88% 29.99 in 10.0 mi South 11.5 mph - 0.00 in   Overcast
9:53 AM 54.0 °F 50.0 °F 86% 29.99 in 10.0 mi South 16.1 mph 23.0 mph 0.01 in Rain Light Rain
10:49 AM 55.4 °F 51.8 °F 88% 30.00 in 10.0 mi South 25.3 mph 29.9 mph 0.00 in   Overcast
10:53 AM 55.0 °F 51.1 °F 86% 30.00 in 10.0 mi South 20.7 mph 31.1 mph 0.00 in   Overcast
11:53 AM 55.9 °F 51.1 °F 84% 29.99 in 10.0 mi South 21.9 mph 27.6 mph 0.00 in   Overcast
12:53 PM 55.9 °F 51.1 °F 84% 30.00 in 10.0 mi South 19.6 mph 29.9 mph 0.00 in   Overcast
1:53 PM 57.0 °F 52.0 °F 83% 30.00 in 10.0 mi South 19.6 mph 25.3 mph N/A   Overcast
2:11 PM 57.2 °F 51.8 °F 82% 30.00 in 10.0 mi South 21.9 mph 28.8 mph N/A   Overcast
2:53 PM 59.0 °F 52.0 °F 78% 29.99 in 10.0 mi South 15.0 mph 27.6 mph N/A   Overcast
3:53 PM 60.1 °F 52.0 °F 75% 29.99 in 10.0 mi South 17.3 mph - N/A   Overcast
4:53 PM 60.1 °F 53.1 °F 78% 29.98 in 10.0 mi South 13.8 mph - N/A   Overcast
5:18 PM 60.8 °F 53.6 °F 77% 29.97 in 10.0 mi South 17.3 mph 25.3 mph N/A   Overcast
5:53 PM 61.0 °F 53.1 °F 75% 29.96 in 10.0 mi South 19.6 mph 24.2 mph N/A   Overcast
6:20 PM 60.8 °F 53.6 °F 77% 29.96 in 10.0 mi South 15.0 mph - N/A   Overcast
6:50 PM 60.8 °F 53.6 °F 77% 29.96 in 10.0 mi South 16.1 mph 25.3 mph 0.00 in   Overcast
6:53 PM 60.1 °F 53.1 °F 78% 29.95 in 10.0 mi South 19.6 mph 25.3 mph 0.00 in   Mostly Cloudy
7:00 PM 60.8 °F 53.6 °F 77% 29.96 in 10.0 mi South 13.8 mph 24.2 mph N/A   Mostly Cloudy
7:41 PM 59.0 °F 53.6 °F 82% 29.96 in 10.0 mi South 10.4 mph - N/A Thunderstorm Partly Cloudy
7:53 PM 59.0 °F 52.0 °F 78% 29.96 in 10.0 mi South 9.2 mph - N/A   Partly Cloudy
8:16 PM 57.2 °F 51.8 °F 82% 29.97 in 10.0 mi WSW 6.9 mph - N/A Thunderstorm Mostly Cloudy
8:30 PM 57.2 °F 53.6 °F 88% 29.98 in 6.0 mi WSW 6.9 mph - 0.06 in Rain , Thunderstorm Heavy Thunderstorms and Rain
8:53 PM 55.0 °F 51.1 °F 86% 29.99 in 4.0 mi SSW 12.7 mph - 0.64 in Rain , Thunderstorm Heavy Thunderstorms and Rain
9:05 PM 57.2 °F 51.8 °F 82% 29.99 in 4.0 mi WSW 10.4 mph - 0.21 in Rain , Thunderstorm Heavy Thunderstorms and Rain
9:26 PM 59.0 °F 53.6 °F 82% 29.99 in 10.0 mi SSW 17.3 mph 24.2 mph 0.41 in   Overcast
9:53 PM 57.9 °F 54.0 °F 87% 30.01 in 10.0 mi SW 8.1 mph - 0.41 in   Overcast
10:31 PM 57.2 °F 53.6 °F 88% 30.02 in 10.0 mi SSW 6.9 mph - N/A   Mostly Cloudy
10:53 PM 57.0 °F 53.1 °F 87% 30.02 in 10.0 mi SW 8.1 mph - N/A   Scattered Clouds
11:53 PM 55.0 °F 52.0 °F 89% 30.04 in 10.0 mi SW 4.6 mph - N/A   Clear